STARLINK-32845, 62815

Orbit data source: Space-Track

STARLINK-32845, 62815 is a payload satellite owned by SpaceX/Seattle (US) in LEO that was launched on Fri, 24 Jan 2025 UTC via an FALCON 9 launch vehicle from the Air Force Western Test Range (AFWTR). Payload-class satellites include a variety of spacecraft equipped with specific instruments for various scientific and technological missions. These include communications satellites like Starlink; space stations such as the ISS; scientific satellites like the Hubble; Earth observation satellites from companies like Planet Labs, Umbra, and HawkEye 360; GPS; miniature CubeSats for education and research; and military/defense satellites.

Loading next visibility...
Identifier
62815, 2025-018K
Orbit
LEO
Country
Flag of USUS
Related business
Manufacturer
SpaceX/Seattle
Mission
Operational Commercial Communications
Bus & Motor
STARLINK V2M, Unknown motor
Mass
730 kg wet, ~700 kg dry
Launch date (UTC)
2025-01-24 (11 months ago)
Launch vehicle
FALCON 9
Launch site
Air Force Western Test Range (AFWTR)
Object type
Payload
Rocket body
Debris
Shape & HBR
Box + 2 Pan, 17.7 m
Radar Cross Section
33.884 m², Large (>1 m²)

Expand to show TLE details & history
Last TLE update: 9 hours ago

TLE from 9 hours ago
0 STARLINK-32845
1 62815U 25018K   25354.15013073  .00015695  00000-0  54053-3 0  9993
2 62815  53.1612 318.8302 0001111  99.0614 261.0512 15.30223527 50990
Epoch: 2025-12-20T03:36Z
TLE epoch observation values (Epoch: 2025-12-20T03:36:11.295Z)
Latitude
-0.00004°
Longitude
175.80204°
Altitude
476.163 km
Speed
7.629 km/s
True Right ascension
21h 15m 19s
True Declination
0° 00' 00"
Sunlit
Object was in daylight at epoch
Visualization orbit readout
Latitude
Unknown
Longitude
Unknown
Altitude
Unknown
Speed
Unknown
Apparent Right ascension
Unknown
Apparent Declination
Unknown
Sunlit
N/A
Visualization observer readout
Local Sidereal Time
12:01:00
Azimuth
Unknown
Elevation
Unknown
Doppler factor
Unknown
Orbital elements
Apogee altitude
476.162 km
Perigee altitude
474.64 km
Semi-major axis
6,853.538 km
Eccentricity
0.00011
Inclination
53.1612°
RAAN
318.8302°
Arg. of periapsis
99.0614°
True anomaly
261.03862°
Mean anomaly
261.0512°
Eccentric anomaly
261.04491°
Mean motion
3.82535 °/min
Orbital period
94.11 mins
BSTAR
0.00054053
Loading maneuver chart data...
Computing Atmospheric mass density...
Loading historical data...
Loading historical data...
Loading historical data...
Loading historical data...
Loading historical data...
Loading historical data...
Loading historical data...

Documentation

Showing up to 5 results
|